Powrót do katalogu

CZ-4 DEB

AktywnySSO
NORAD 26300·DEBRIS·🇨🇳 China

Wystrzelony Oct 14, 1999 z Taiyuan Satellite Launch Center

Loading…

Następne Przeloty (najbliższe 24 godziny)

TLE

ŚwieżeSource: Space-Track

Epoka: Sep 14, 2026, 11:09 UTC

1 26300U 99057GL  26257.46511693  .00002143  00000-0  35699-3 0  9993
2 26300  98.3495 329.6152 0057125 325.4214  46.8329 14.70068806399249

Śledź CZ-4 DEB w czasie rzeczywistym z AllMySat

Download on the App Store